Weather in Malange

Angola     9°32′35″S   16°19′56″E
temp.,
°C
wind,
m/s
gust,
m/s
humid.,
%
clouds,
%
prec.,
mm/h
press.,
hPa
HPBL,
m
7 may, fri
fri701:00+17se0197100 0.0 101511
04:00+17e1198100 0.0 101423
07:00+17ese129580 0.0 101669
10:00+23se237596 0.0 1016632
13:00+26ese246274 0.6 10121350
16:00+24s127874 1.3 1011188
19:00+19nw119099 3.7 101411
22:00+18w239677 2.3 101674
8 may, sat
sat801:00+17wnw259826 2.4 1015151
04:00+17w2399100 0.6 1015167
07:00+18wsw239597 1.7 1016297
10:00+22wsw118596 0.1 1016484
13:00+26w11687 1.8 10131001
16:00+24sse117419 2.1 1012371
19:00+19w11925 2.7 101411
22:00+18wnw24967 0.0 101679
9 may, sun
sun901:00+17nw1198100 0.0 101517
04:00+18wsw129993 0.4 1015135
07:00+18ssw0197100 0.4 1016134
10:00+23se1280100 0.5 1016378
13:00+25e236590 1.0 10131343
16:00+24e127478 0.9 1012666
19:00+20n1188100 1.0 101414
22:00+19nnw118977 0.0 101611
10 may, mon
mon1001:00+18s00934 0.0 101611
04:00+17sse11966 0.0 101511
07:00+18se1294100 0.0 101788
10:00+23ese2467100 0.0 1017714
13:00+26e3552100 0.0 10141516
16:00+25e246597 0.0 1013415
19:00+19ne117950 0.0 101511
22:00+18nne11818 0.0 101711
11 may, tue
tue1101:00+17e01791 0.0 101611
04:00+16ese11810 0.0 101611
07:00+17ese12820 0.0 101866
10:00+24ese24620 0.0 1017722
13:00+26ese364923 0.0 10142209
16:00+25e256121 0.0 1013382
19:00+20nne117534 0.0 101512
22:00+18ne11800 0.0 101711